TIME,DELAY(SENSOR),PRES,OXYGEN,RAWTEMP,T(OPTODE),TCPHASE,FLUOR,BETA(BETA700),BETA(BETA412),BETA(BETA440),CDOM,C(CSC),ED(ED412.20),ED(ED444.00),ED(ED489.60),ED(ED554.30),LU(LU412.10),LU(LU443.90),LU(LU489.70),LU(LU554.70),COMP,TILTX,TILTY,CHECK
1342149449,5808,885.2299804687500000,39.0494384765625000,557.5518798828125000,4.5617408752441410,55.6290397644043000,55,101,101,78,83,15568,0,0,0,0,2147123181,2147775817,2147567972,2147574107,3140,3,13,21218
1342153046,5810,967.2100219726562000,43.1532592773437500,568.0988769531250000,4.2346229553222660,55.1291999816894500,56,100,102,78,83,15568,0,0,0,0,2147123739,2147772699,2147571273,2147572763,352,3,13,5267
1342156646,5810,987.6900024414062000,43.8532981872558600,569.2747192382812000,4.1980972290039060,55.0467300415039060,55,99,101,77,83,15565,0,0,0,0,2147120493,2147776621,2147572525,2147571702,295,3,13,5098
1342160246,5808,983.9199829101562000,43.8596305847168000,570.8015136718750000,4.1506538391113280,55.0639610290527340,55,101,102,81,83,15564,0,0,0,0,2147127286,2147775414,2147568704,2147572681,3231,3,13,58420
1342163846,5813,1000.0000000000000000,43.9004592895507800,571.2282714843750000,4.1373839378356930,55.0573997497558600,54,99,102,77,83,15563,0,0,0,0,2147120438,2147777737,2147572946,2147571858,335,3,13,47808
1342167446,5810,1005.1099853515625000,43.0554084777832000,570.0670776367188000,4.1734771728515625,55.1677207946777340,54,102,101,77,83,15564,0,0,0,0,2147120027,2147779666,2147576045,2147572873,2800,3,13,53753
1342171046,5809,1009.3200073242188000,43.0237083435058600,569.7205200195312000,4.1842460632324220,55.1667098999023440,55,98,100,79,83,15562,0,0,0,0,2147126948,2147780845,2147573558,2147571657,266,3,13,52268
1342174646,5811,1010.3499755859375000,42.9351501464843750,569.5927124023438000,4.1882190704345700,55.1824188232421900,56,100,101,79,83,15561,0,0,0,0,2147124004,2147770706,2147574454,2147568886,60,3,13,57778
1342178246,5808,1013.4500122070312000,42.5375213623046900,569.1771240234375000,4.2011318206787110,55.2308502197265600,55,102,101,78,83,15563,0,0,0,0,2147123392,2147772562,2147576475,2147573193,330,3,13,64266
1342181846,5809,1010.9400024414062000,42.6043815612793000,569.5952148437500000,4.1881408691406250,55.2253990173339840,55,99,102,78,82,15559,0,0,0,0,2147123062,2147770953,2147575104,2147570523,35,3,13,65370
1342185446,5808,1013.3099975585938000,42.8239898681640600,569.9099731445312000,4.1783580780029300,55.2005081176757800,56,98,102,78,82,15560,0,0,0,0,2147123510,2147776603,2147577654,2147570313,3424,3,13,45106
1342189046,5807,1019.7899780273438000,42.7664985656738300,569.1072998046875000,4.2032990455627440,55.1962814331054700,56,103,101,78,83,15560,0,0,0,0,2147121334,2147779392,2147573778,2147571547,491,3,13,9025
1342192646,5813,1014.0399780273438000,42.3773002624511700,569.4973754882812000,4.1911787986755370,55.2547111511230500,54,105,100,78,83,15559,0,0,0,0,2147120978,2147774290,2147572754,2147569389,3488,3,13,4574
1342196246,5811,1013.0300292968750000,42.7815399169921900,570.0988159179688000,4.1724929809570310,55.2040405273437500,55,99,99,78,82,15554,0,0,0,0,2147122203,2147776411,2147574692,2147567643,3476,3,13,64474
1342199846,5810,1012.5200195312500000,42.7607498168945300,570.4033203125000000,4.1630291938781740,55.2148399353027340,55,100,101,79,84,15555,0,0,0,0,2147122752,2147774189,2147573147,2147568438,106,3,13,44231
1342203446,5811,1013.5000000000000000,42.7395095825195300,570.5991210937500000,4.1569418907165530,55.2190818786621100,55,99,101,78,84,15559,0,0,0,0,2147128877,2147775744,2147573421,2147570724,56,3,13,9474
1342207045,5811,1015.0999755859375000,43.3167610168457000,571.6464843750000000,4.1243820190429690,55.1437797546386700,55,100,101,78,83,15548,0,0,0,0,2147122532,2147773101,2147574134,2147568694,3532,3,13,41847
1342210646,5808,1013.1400146484375000,42.6871299743652340,569.9282226562500000,4.1777920722961430,55.2206802368164060,56,101,102,79,83,15530,0,0,0,0,2147122258,2147775478,2147574637,2147569005,196,3,13,31920
1342214246,5810,1017.3699951171875000,42.3418388366699200,570.3300781250000000,4.1653041839599610,55.2751693725585940,55,99,101,79,83,15531,0,0,0,0,2147122834,2147780205,2147575405,2147572653,273,3,13,56648
1342217846,5807,1017.7000122070312000,42.6096115112304700,570.4625244140625000,4.1611900329589840,55.2350502014160160,54,100,101,78,83,15527,0,0,0,0,2147124178,2147776649,2147574144,2147572032,248,3,13,43781
1342221445,5809,1008.6599731445312000,42.8013916015625000,571.6791992187500000,4.1233668327331540,55.2203903198242200,55,100,102,79,83,15531,0,0,0,0,2147121481,2147772754,2147573778,2147570404,239,3,13,11440
1342225046,5810,1017.7899780273438000,43.5521697998046900,571.6790161132812000,4.1233730316162110,55.1105613708496100,54,101,101,78,83,15532,0,0,0,0,2147123721,2147773686,2147569773,2147571702,3257,3,13,54828
1342228645,5809,1012.8499755859375000,43.1107597351074200,571.3615722656250000,4.1332421302795410,55.1765708923339840,55,100,103,78,83,15530,0,0,0,0,2147123611,2147773229,2147573504,2147572086,6,3,13,51222
1342232246,5809,1005.1699829101562000,43.4196205139160160,572.7689208984375000,4.0894827842712400,55.1446189880371100,55,101,102,79,83,15526,0,0,0,0,2147123355,2147769408,2147572443,2147569572,2996,3,13,48275
1342235846,5811,1020.6799926757812000,43.6880989074707000,572.6918945312500000,4.0918769836425780,55.1063804626464840,54,99,102,79,84,15526,0,0,0,0,2147123072,2147776201,2147574144,2147574418,3403,3,13,31801
1342239445,5810,1017.0700073242188000,42.8987998962402340,571.6995849609375000,4.1227321624755860,55.2055702209472660,55,113,100,79,82,15523,0,0,0,0,2147122285,2147775606,2147573110,2147572525,761,3,13,6583
1342243046,5811,1006.8400268554688000,42.4040603637695300,572.4960937500000000,4.0979671478271480,55.2849998474121100,55,100,100,77,83,15526,0,0,0,0,2147124022,2147769225,2147570907,2147568969,3223,3,13,42004
1342246646,5807,1013.6300048828125000,43.5909690856933600,572.8040771484375000,4.0883879661560060,55.1209793090820300,55,100,102,78,83,15523,0,0,0,0,2147121563,2147775268,2147570011,2147569188,139,3,13,37992
1342250246,5808,1017.1699829101562000,43.9313888549804700,572.4680786132812000,4.0988368988037110,55.0689888000488300,55,100,101,77,82,15522,0,0,0,0,2147124123,2147774555,2147570587,2147572096,193,3,13,45493
1342253846,5809,1016.2199707031250000,42.8909912109375000,571.5905151367188000,4.1261248588562010,55.2100982666015600,55,102,102,77,82,15523,0,0,0,0,2147123885,2147772086,2147577243,2147574262,223,3,13,43677
1342257445,5810,1020.0599975585938000,43.3633308410644500,571.7551879882812000,4.1210021972656250,55.1426200866699200,56,99,99,78,83,15522,0,0,0,0,2147125750,2147770185,2147574089,2147570880,42,3,13,60163
1342261046,5811,1027.3499755859375000,42.7837715148925800,570.7379150390625000,4.1526298522949220,55.2104911804199200,55,99,101,78,84,15524,0,0,0,0,2147123748,2147771547,2147570880,2147573184,529,3,13,12628
1342264646,5809,1025.8000488281250000,41.9365692138671900,570.3690185546875000,4.1640949249267580,55.3337783813476560,55,100,101,78,84,15522,0,0,0,0,2147122669,2147774409,2147574939,2147569993,481,3,13,22660
1342268246,5808,1022.0999755859375000,41.9479904174804700,569.9165039062500000,4.1781558990478520,55.3231010437011700,54,101,101,78,82,15523,0,0,0,0,2147123392,2147770048,2147574427,2147574208,267,3,13,14140
1342271846,5809,1027.4000244140625000,42.1036682128906250,569.0009765625000000,4.2066001892089840,55.2952919006347660,55,99,102,78,83,15518,0,0,0,0,2147124196,2147771072,2147572553,2147571986,3436,3,13,45087
1342275446,5812,1017.9400024414062000,42.3900413513183600,570.4094238281250000,4.1628360748291020,55.2648315429687500,54,99,103,78,82,15521,0,0,0,0,2147125074,2147775780,2147573979,2147573558,3353,3,13,7492
1342279046,5810,1025.1999511718750000,42.4959907531738300,570.4628295898438000,4.1611771583557130,55.2528495788574200,54,98,101,78,83,15504,0,0,0,0,2147123730,2147775954,2147570925,2147568164,3557,3,13,27076
1342282646,5808,1024.7500000000000000,42.6555480957031250,570.3029174804688000,4.1661491394042970,55.2249488830566400,54,98,101,79,84,15497,0,0,0,0,2147123200,2147765750,2147575725,2147574500,241,3,13,25913
1342286246,5810,1021.9600219726562000,42.4782981872558600,570.8798217773438000,4.1482157707214355,55.2608909606933600,55,101,100,78,84,15506,0,0,0,0,2147120923,2147771565,2147575698,2147570477,117,3,13,10854
1342289845,5808,1025.7399902343750000,42.6668205261230500,570.3071899414062000,4.1660141944885250,55.2277603149414060,55,98,102,79,83,15494,0,0,0,0,2147123446,2147771309,2147573312,2147575195,3538,3,13,20625
1342293446,5812,1026.9799804687500000,42.2116012573242200,570.7120971679688000,4.1534290313720700,55.2941284179687500,54,101,101,78,83,15344,0,0,0,0,2147122313,2147767478,2147573595,2147573412,150,3,13,23809
1342293957,5811,1027.5799560546875000,42.5131912231445300,570.3394165039062000,4.1650137901306150,55.2477684020996100,54,102,101,78,83,15357,0,0,0,0,2147124443,2147770962,2147566262,2147572288,149,3,13,17333
